This is the latest recevied weather packets stored in our database for station/object KA3RQR. If no packets are shown the sender has not sent any weather packets the latest 10 day(s).
| Time | Temp. | Humidity | Pressure | Rain* | Wind** | Luminosity | Snow |
|---|---|---|---|---|---|---|---|
| 1777855283 | 10.56° C | 52% | 1014.8 hPa | 0 mm | - | 0 W/m² | - |
| 1777854979 | 10.56° C | 52% | 1014.7 hPa | 0 mm | - | 0 W/m² | - |
| 1777854676 | 11.11° C | 50% | 1014.7 hPa | 0 mm | - | 0 W/m² | - |
| 1777854373 | 11.11° C | 50% | 1014.8 hPa | 0 mm | - | 0 W/m² | - |
| 1777854071 | 11.67° C | 50% | 1014.8 hPa | 0 mm | - | 0 W/m² | - |
| 1777853768 | 11.67° C | 47% | 1014.8 hPa | 0 mm | - | 0 W/m² | - |
| 1777853464 | 12.22° C | 48% | 1014.7 hPa | 0 mm | - | 0 W/m² | - |
| 1777853161 | 12.22° C | 45% | 1014.6 hPa | 0 mm | - | 0 W/m² | - |
| 1777852859 | 12.78° C | 45% | 1014.7 hPa | 0 mm | - | 0 W/m² | - |
| 1777852557 | 13.33° C | 45% | 1014.7 hPa | 0 mm | - | 3 W/m² | - |
| 1777852253 | 13.89° C | 43% | 1014.4 hPa | 0 mm | - | 4 W/m² | - |
| 1777851951 | 14.44° C | 41% | 1014.3 hPa | 0 mm | - | 7 W/m² | - |
| 1777851649 | 14.44° C | 38% | 1014.5 hPa | 0 mm | - | 9 W/m² | - |
| 1777851345 | 15° C | 37% | 1014.4 hPa | 0 mm | - | 11 W/m² | - |
| 1777851041 | 15° C | 34% | 1014.4 hPa | 0 mm | - | 12 W/m² | - |
| 1777850739 | 15.56° C | 33% | 1014.4 hPa | 0 mm | - | 15 W/m² | - |
| 1777850436 | 15.56° C | 32% | 1014.3 hPa | 0 mm | - | 18 W/m² | - |
| 1777850134 | 15.56° C | 32% | 1014.1 hPa | 0 mm | - | 20 W/m² | - |
| 1777849830 | 15.56° C | 33% | 1014.4 hPa | 0 mm | - | 23 W/m² | - |
| 1777849527 | 15.56° C | 32% | 1014.2 hPa | 0 mm | - | 25 W/m² | - |
| 1777849224 | 16.11° C | 34% | 1014.3 hPa | 0 mm | - | 28 W/m² | - |
| 1777848921 | 16.11° C | 32% | 1014.2 hPa | 0 mm | - | 31 W/m² | - |
| 1777848616 | 16.11° C | 32% | 1014.3 hPa | 0 mm | - | 32 W/m² | - |
| 1777848314 | 16.67° C | 31% | 1014.3 hPa | 0 mm | - | 48 W/m² | - |
| 1777848011 | 17.22° C | 31% | 1014.4 hPa | 0 mm | - | 74 W/m² | - |
* Rain latest hour (hover to see other rain measurements)
** Current wind speed in m/s (hover to see current wind gust speed)